[[{"header":{"parameterUnit":"m.s-1","parameterCategory":1,"la1":30.2991,"la2":30.254,"lo1":-89.0895,"lo2":-89.0444,"dy":0.0017,"dx":0.0017,"nx":28,"ny":28,"refTime":"2024-06-01T03:00:00:Z","depth":0,"parameterNumber":2,"parameterNumberName":"U-component_of_WINDS"},"data":[0,0,0,0,0,0,0,0,0,0,0,0,0,0,0,0,0,0,0,0,0,0,0,0,0,0,0,0,0,0,0,0,0,0,0,0,0,0,0,0,0,0,0,0,0,0,0,0,0,0,0,0,0,0,0,0,0,0,-3.9232,-3.9235,0,-3.9594,-3.9599,-3.9603,-3.9784,-3.9784,-3.9784,-3.9784,-4.016,-4.017,-4.018,0,0,0,0,0,0,0,0,0,0,0,0,0,-3.87,-3.8708,-3.9231,-3.9236,-3.924,-3.9594,-3.9599,-3.9604,-3.9784,-3.9784,-3.9784,-3.9784,-4.0157,-4.0169,-4.0181,0,0,0,0,0,0,0,0,0,0,0,0,0,-3.8983,-3.8711,-3.923,-3.9373,-3.9389,-3.9593,-3.9599,-3.9605,-3.9784,-3.9784,-3.9784,-3.9784,-4.0153,-4.0167,-4.0182,-4.0273,0,0,-4.0228,-4.0234,0,0,0,0,0,0,0,0,-3.8967,-3.9002,-3.9347,-3.9363,-3.9382,-3.9644,-3.9549,-3.9829,-3.9784,-3.9634,-3.9784,-3.9784,-3.9989,-4.0017,-4.0085,-4.0291,-4.0307,-4.0229,-4.0238,-4.0245,-4.0249,0,0,0,0,0,0,0,-3.8947,-3.8988,-3.9375,-3.9352,-3.9373,-3.942,-3.9461,-3.9603,-3.9807,-3.9647,-3.9661,-3.9702,-3.9998,-4.007,-4.0095,-4.0312,-4.0229,-4.0242,-4.0251,-4.0257,-4.0613,-4.0614,0,0,0,0,0,0,-3.8904,-3.897,-3.9364,-3.9386,-3.917,-3.943,-3.9475,-3.956,-3.9806,-3.9843,-3.9701,-3.9709,-4.0045,-4.0078,-4.0109,-4.0234,-4.0245,-4.0259,-4.0267,-4.0613,-4.0613,-4.0614,0,0,0,0,0,0,-3.8891,-3.8937,-3.9349,-3.9182,-3.9238,-3.9439,-3.9533,-3.9567,-3.9639,-3.9846,-3.9884,-3.9737,-4.0046,-4.0088,-4.0231,-4.0249,-4.0265,-4.0279,-4.0612,-4.0613,-4.0613,-4.0481,0,0,0,0,0,0,-3.8875,-3.8931,-3.8967,-3.9182,-3.9246,-3.9463,-3.9534,-3.9574,-3.9664,-3.9677,-3.989,-3.9925,-4.0049,-4.0208,-4.0246,-4.027,-4.0291,-4.0611,-4.0612,-4.0613,-4.0484,-4.0477,-4.047,0,0,0,0,0,-3.8856,-3.8915,-3.8968,-3.9014,-3.9294,-3.9463,-3.9501,-3.9641,-3.9665,-3.9703,-3.9836,-3.9919,-4.024,-4.0221,-4.0265,-4.0294,-4.0611,-4.0612,-4.0613,-4.0487,-4.0478,-4.047,0,0,0,0,0,0,-3.8699,-3.8946,-3.9007,-3.9137,-3.9278,-3.9494,-3.9546,-3.9626,-3.9764,-3.9771,-3.9941,-3.9987,-4.0115,-4.0219,-4.0193,-4.0396,-4.0434,-4.0444,-4.0323,-4.0316,-4.0309,-4.0282,-4.0303,0,0,0,0,0,-3.8679,-3.8794,-3.9005,-3.91,-3.9167,-3.9343,-3.9423,-3.9518,-3.9672,-3.9732,-3.9876,-4.0023,-4.0158,-4.0242,-4.0378,-4.05,-4.055,-4.0542,-4.0534,-4.0528,-4.0535,-4.0609,-4.0608,-4.0617,-4.0617,-4.0617,0,0,-3.8641,-3.879,-3.8852,-3.9072,-3.9192,-3.9309,-3.9393,-3.9513,-3.9602,-3.9751,-3.9895,-4.0005,-4.0181,-4.0313,-4.038,-4.0404,-4.0543,-4.0529,-4.0522,-4.0533,-4.061,-4.0609,-4.0608,-4.0618,-4.0618,-4.0618,0,0,-3.863,-3.8753,-3.8847,-3.8965,-3.9145,-3.9263,-3.9284,-3.9489,-3.9568,-3.9714,-3.9829,-3.9938,-4.0166,-4.0286,-4.0377,-4.0412,-4.0494,-4.0452,-4.0415,-4.0486,-4.0485,-4.0485,-4.0499,-4.0502,-4.0458,-4.0457,-4.0457,0,-3.8559,-3.8738,-3.8885,-3.8999,-3.9093,-3.9232,-3.9328,-3.9437,-3.9652,-3.9715,-3.9739,-4.0029,-4.0156,-4.0321,-4.0329,-4.0397,-4.043,-4.0429,-4.0473,-4.0475,-4.0477,-4.0493,-4.0497,-4.0451,-4.0452,-4.0453,-4.0453,0,-3.8643,-3.8766,-3.882,-3.9023,-3.9123,-3.9227,-3.9392,-3.9476,-3.9563,-3.9678,-3.9826,-3.9984,-4.0155,-4.0201,-4.0287,-4.0378,-4.0388,-4.044,-4.0482,-4.0467,-4.0485,-4.0492,-4.0442,-4.0445,-4.0446,-4.0448,0,0,-3.8544,-3.8826,-3.8844,-3.8938,-3.9148,-3.9246,-3.9358,-3.9523,-3.9593,-3.9737,-3.9836,-4.0026,-4.0076,-4.0179,-4.0281,-4.0342,-4.0362,-4.0388,-4.0395,-4.0379,-4.0474,-4.0434,-4.0438,-4.0417,-4.0419,-4.042,-4.046,0,-3.8563,-3.8768,-3.8903,-3.9055,-3.9171,-3.9305,-3.9403,-3.9543,-3.9654,-3.977,-3.9894,-4.0026,-4.0081,-4.0144,-4.0211,-4.0345,-4.0383,-4.0344,-4.0513,-4.0517,-4.0466,-4.0447,-4.0405,-4.0435,-4.0467,-4.0468,-4.0469,0,-3.8613,-3.8752,-3.8914,-3.9112,-3.9166,-3.9251,-3.9414,-3.9522,-3.9685,-3.9762,-3.9876,-3.998,-4.0106,-4.0135,-4.0313,-4.0283,-4.036,-4.0436,-4.0441,-4.0463,-4.0493,-4.047,-4.0447,-4.0452,-4.0481,-4.048,-4.0479,0,-3.8525,-3.8753,-3.888,-3.8957,-3.919,-3.9247,-3.9347,-3.951,-3.96,-3.9744,-3.9805,-3.9961,-4.0046,-4.0166,-4.031,-4.0318,-4.0473,-4.0515,-4.0542,-4.0538,-4.0569,-4.0565,-4.056,-4.0616,-4.0616,-4.0616,-4.0616,0,-3.8533,-3.8627,-3.8844,-3.8922,-3.9033,-3.9188,-3.9295,-3.9406,-3.955,-3.9654,-3.978,-3.9876,-4.0059,-4.0178,-4.0291,-4.0422,-4.0459,-4.0526,-4.0556,-4.0516,-4.0507,-4.0569,-4.0572,-4.0618,-4.0617,-4.0617,-4.0617,0,-3.8453,-3.8602,-3.875,-3.8958,-3.9013,-3.9085,-3.9266,-3.9348,-3.9465,-3.9596,-3.9635,-3.982,-3.9967,-4.0122,-4.0321,-4.0398,-4.0524,-4.0564,-4.0468,-4.0485,-4.0504,-4.05,-4.0539,-4.0553,-4.0597,-4.0596,-4.0596,0,-3.8448,-3.8524,-3.8741,-3.8818,-3.8915,-3.9039,-3.9132,-3.9289,-3.9381,-3.9573,-3.9632,-3.9788,-3.992,-4.0148,-4.0302,-4.0456,-4.0502,-4.0505,-4.0526,-4.0484,-4.0504,-4.0498,-4.0507,-4.0498,-4.0497,-4.0496,-4.0495,0,-3.8425,-3.8494,-3.8623,-3.8777,-3.8884,-3.9014,-3.9149,-3.9206,-3.939,-3.9488,-3.9638,-3.9741,-3.9944,-4.0098,-4.0271,-4.0377,-4.0467,-4.0487,-4.0502,-4.0462,-4.0404,-4.0437,-4.045,-4.0486,-4.0486,-4.0487,-4.0488,-4.0488,-3.8384,-3.8458,-3.8621,-3.8761,-3.8878,-3.9002,-3.9089,-3.9218,-3.9345,-3.9521,-3.9607,-3.9758,-3.9921,-4.0162,-4.0266,-4.0388,-4.0415,-4.0435,-4.0441,-4.0444,-4.0435,-4.0383,-4.042,-4.042,-4.0421,-4.0421,-4.0422,0,-3.8367,-3.8479,-3.8605,-3.8789,-3.8899,-3.8973,-3.9127,-3.9214,-3.9345,-3.9488,-3.9616,-3.979,-3.994,-4.0106,-4.0266,-4.0332,-4.0378,-4.037,-4.0367,-4.039,-4.0401,-4.0372,-4.033,-4.033,-4.033,-4.033,-4.033,-4.033,-3.8371,-3.8501,-3.859,-3.878,-3.8893,-3.9039,-3.9121,-3.9236,-3.9352,-3.954,-3.9664,-3.9771,-3.9925,-4.0098,-4.024,-4.0285,-4.0339,-4.0318,-4.0375,-4.0382,-4.0389,-4.0396,-4.0371,-4.0328,-4.0328,-4.0356,-4.0356,-4.0356]},{"header":{"parameterUnit":"m.s-1","parameterCategory":1,"la1":30.2991,"la2":30.254,"lo1":-89.0895,"lo2":-89.0444,"dy":0.0017,"dx":0.0017,"nx":28,"ny":28,"refTime":"2024-06-01T03:00:00:Z","depth":0,"parameterNumber":3,"parameterNumberName":"V-component_of_WINDS"},"data":[0,0,0,0,0,0,0,0,0,0,0,0,0,0,0,0,0,0,0,0,0,0,0,0,0,0,0,0,0,0,0,0,0,0,0,0,0,0,0,0,0,0,0,0,0,0,0,0,0,0,0,0,0,0,0,0,0,0,4.7833,4.7833,0,4.7863,4.7864,4.7864,4.7814,4.7812,4.781,4.7809,4.7836,4.7838,4.7841,0,0,0,0,0,0,0,0,0,0,0,0,0,4.7728,4.773,4.7833,4.7833,4.7834,4.7863,4.7864,4.7864,4.7814,4.7812,4.781,4.7808,4.7835,4.7838,4.7841,0,0,0,0,0,0,0,0,0,0,0,0,0,4.7767,4.7731,4.7833,4.7813,4.7811,4.7863,4.7864,4.7864,4.7815,4.7812,4.7809,4.7807,4.7834,4.7838,4.7841,4.7914,0,0,4.7852,4.7853,0,0,0,0,0,0,0,0,4.7765,4.7771,4.7815,4.7814,4.7812,4.7832,4.7836,4.7881,4.7815,4.7813,4.7809,4.7806,4.7837,4.784,4.7851,4.7915,4.7916,4.7852,4.7854,4.7856,4.7857,0,0,0,0,0,0,0,4.7762,4.777,4.7845,4.7816,4.7814,4.78,4.7803,4.7845,4.7839,4.7813,4.781,4.7814,4.7835,4.7848,4.7851,4.7917,4.7852,4.7855,4.7857,4.7859,4.8039,4.8042,0,0,0,0,0,0,4.7763,4.7768,4.7844,4.7846,4.7782,4.7804,4.7808,4.7828,4.7838,4.7837,4.7816,4.7812,4.7843,4.7847,4.7852,4.7935,4.7856,4.7859,4.7861,4.8036,4.804,4.8043,0,0,0,0,0,0,4.7761,4.777,4.7843,4.7806,4.7814,4.7809,4.7833,4.783,4.7843,4.7841,4.7839,4.783,4.7841,4.7847,4.7898,4.7936,4.7861,4.7864,4.8033,4.8037,4.8041,4.8104,0,0,0,0,0,0,4.7758,4.777,4.7798,4.7807,4.7816,4.789,4.7835,4.7833,4.7849,4.7843,4.7853,4.7852,4.784,4.7894,4.7902,4.7939,4.7866,4.803,4.8035,4.804,4.8098,4.811,4.8119,0,0,0,0,0,4.7754,4.7814,4.78,4.7809,4.7852,4.7892,4.7897,4.7883,4.7852,4.788,4.7878,4.7852,4.7931,4.7899,4.7908,4.7947,4.8027,4.8034,4.8039,4.8094,4.8107,4.8119,0,0,0,0,0,0,4.7809,4.7815,4.7799,4.7864,4.7878,4.7884,4.7918,4.7898,4.792,4.7914,4.7894,4.7896,4.7951,4.7955,4.7919,4.8016,4.7974,4.7982,4.8012,4.8025,4.8035,4.8032,4.7869,0,0,0,0,0,4.7829,4.7862,4.7865,4.7922,4.793,4.7923,4.794,4.7928,4.7941,4.7947,4.7949,4.7962,4.7989,4.8008,4.8033,4.81,4.8099,4.8131,4.8141,4.8149,4.8156,4.8189,4.8202,4.8063,4.8063,4.8063,0,0,4.7869,4.7877,4.7899,4.7933,4.7943,4.7976,4.7929,4.7966,4.799,4.7952,4.8,4.8003,4.8016,4.8074,4.81,4.8079,4.8195,4.8157,4.8164,4.8166,4.8197,4.821,4.8221,4.8067,4.8066,4.8065,0,0,4.796,4.797,4.8017,4.8028,4.8044,4.8039,4.805,4.8059,4.8059,4.8108,4.8079,4.8107,4.8156,4.8165,4.8177,4.8271,4.8246,4.828,4.8333,4.8366,4.8376,4.8386,4.8417,4.8429,4.8287,4.8287,4.8287,0,4.8007,4.8058,4.8044,4.8084,4.8098,4.8067,4.8113,4.8124,4.8147,4.8157,4.8133,4.8192,4.8199,4.8258,4.8282,4.8293,4.8303,4.8277,4.8376,4.8386,4.8394,4.8424,4.8436,4.8291,4.8291,4.829,4.829,0,4.8115,4.8151,4.8187,4.821,4.8229,4.8273,4.8263,4.8284,4.8271,4.8268,4.8316,4.8324,4.8349,4.8363,4.835,4.842,4.8406,4.838,4.8336,4.8412,4.8439,4.845,4.8296,4.8295,4.8294,4.8293,0,0,4.8239,4.8254,4.8267,4.8277,4.8292,4.8318,4.8359,4.8385,4.8402,4.8419,4.8451,4.8493,4.8469,4.8482,4.847,4.8499,4.857,4.8468,4.8468,4.8485,4.8645,4.8662,4.8676,4.8555,4.8557,4.8559,4.8643,0,4.8327,4.8398,4.8387,4.8455,4.8486,4.8457,4.8492,4.8504,4.8503,4.8528,4.8526,4.8555,4.8522,4.853,4.8557,4.8555,4.8601,4.855,4.8582,4.8583,4.8577,4.869,4.8709,4.8788,4.8654,4.8655,4.8657,0,4.8439,4.846,4.8532,4.8541,4.8553,4.8585,4.8607,4.8633,4.8645,4.8642,4.8657,4.8639,4.8678,4.8636,4.8688,4.8653,4.8666,4.8667,4.867,4.867,4.8623,4.8691,4.8813,4.8824,4.8674,4.8673,4.8671,0,4.8518,4.8565,4.8614,4.8623,4.8635,4.8658,4.8664,4.8674,4.869,4.8709,4.8719,4.8742,4.8754,4.8772,4.8761,4.8732,4.8814,4.8772,4.881,4.8811,4.8826,4.8825,4.895,4.884,4.884,4.884,4.884,0,4.8616,4.866,4.8649,4.8679,4.8727,4.8713,4.8761,4.8763,4.8773,4.8801,4.8778,4.8804,4.8789,4.8814,4.8805,4.8848,4.8855,4.8852,4.8848,4.8852,4.8852,4.8858,4.8851,4.8843,4.8842,4.8842,4.8841,0,4.8712,4.8707,4.8757,4.8765,4.8768,4.8803,4.8808,4.8835,4.8832,4.8868,4.8876,4.8871,4.8899,4.889,4.8921,4.8915,4.8969,4.896,4.8965,4.8961,4.8999,4.8995,4.913,4.9146,4.9029,4.903,4.9031,0,4.8773,4.8806,4.8818,4.8835,4.8843,4.8872,4.8888,4.8876,4.8893,4.891,4.8934,4.8961,4.8981,4.9027,4.9025,4.9048,4.9038,4.9084,4.9041,4.9043,4.9035,4.9032,4.9034,4.9091,4.9093,4.9094,4.9095,0,4.8881,4.8877,4.8902,4.8926,4.8946,4.8964,4.8979,4.8995,4.8983,4.9004,4.9033,4.9049,4.908,4.9106,4.9126,4.9131,4.911,4.9109,4.9118,4.9121,4.9121,4.9118,4.8985,4.9105,4.9104,4.9103,4.9102,4.9102,4.896,4.8987,4.8999,4.9027,4.9038,4.9053,4.9078,4.9078,4.9103,4.9127,4.9119,4.9151,4.9162,4.9188,4.9195,4.9219,4.9202,4.9216,4.9219,4.9222,4.9226,4.912,4.9224,4.9223,4.9223,4.9223,4.9223,0,4.9064,4.907,4.9096,4.9119,4.9141,4.9122,4.9138,4.9156,4.9186,4.9198,4.9219,4.9251,4.9276,4.9277,4.93,4.9319,4.931,4.9325,4.9322,4.9323,4.9242,4.923,4.9332,4.9332,4.9332,4.9332,4.9332,4.9332,4.9121,4.9165,4.9163,4.9212,4.9218,4.925,4.9261,4.9274,4.9283,4.9321,4.9342,4.9343,4.935,4.9373,4.9394,4.9394,4.9402,4.942,4.9416,4.934,4.9329,4.9318,4.9307,4.9423,4.9423,4.9494,4.9494,4.9495]}]]